Regional Weather Roundup
Issued by NWS Upton, NY

Current Version | Previous Version | Text Only | Print | Product List | Glossary On
Versions: 1 2 3 4 5 6 7 8 9 10 11 12 13 14 15 16 17 18 19 20 21 22 23 24 25 26 27 28 29 30 31 32 33 34 35 36 37 38 39 40 41 42 43 44 45 46 47 48 49 50
000 ASUS41 KOKX 302104 RWROKX REGIONAL WEATHER ROUNDUP NATIONAL WEATHER SERVICE NEW YORK NY 500 PM EDT THU JUL 30 2015 NOTE: "FAIR" INDICATES FEW OR NO CLOUDS BELOW 12,000 FEET WITH NO SIGNIFICANT WEATHER AND/OR OBSTRUCTIONS TO VISIBILITY. NYZ071-072-176-178-NJZ106-104-302200- NEW YORK CITY METRO AREA CITY SKY/WX TMP DP RH WIND PRES REMARKS CENTRAL PARK HVY RAIN 76 73 91 CALM 29.83R VSB 3/4 LAGUARDIA APRT TSTM 77 73 87 W13G31 29.81R FOG KENNEDY INTL TSTM 78 73 84 S21G28 29.82R NEWARK/LIBERTY TSTM 78 75 90 S6 29.79F BRNX BOT. GARD N/A 75 73 94 SE2 29.82R TETERBORO LGT RAIN 82 71 69 SW10 29.78S $$ NYZ177-179-078>081-302200- LONG ISLAND NEW YORK CITY SKY/WX TMP DP RH WIND PRES REMARKS FARMINGDALE CLOUDY 80 72 76 S20G26 29.81S ISLIP CLOUDY 79 72 79 S10G24 29.80S SHIRLEY CLOUDY 79 73 82 S14G24 29.83S WESTHAMPTON PTSUNNY 80 74 81 SW15G24 29.84S MONTAUK POINT N/A 80 73 79 S10G22 29.84F $$ NYZ052-065-067-302200- HUDSON VALLEY CITY SKY/WX TMP DP RH WIND PRES REMARKS WHITE PLAINS TSTM 75 73 93 NW12 29.83R VSB 1/2 NEWBURGH PTSUNNY 77 73 88 W6G17 29.81 MONTGOMERY CLOUDY 78 73 84 S8 29.79F POUGHKEEPSIE CLOUDY 80 72 76 SW5 29.78S ALBANY PTSUNNY 85 68 56 NW10 29.76F $$ NJZ001-105-106-008-010-013-015-019>022-104-302200- NEW JERSEY CITY SKY/WX TMP DP RH WIND PRES REMARKS NEWARK/LIBERTY TSTM 78 75 90 S6 29.79F TETERBORO LGT RAIN 82 71 69 SW10 29.78S CALDWELL CLOUDY 79 74 84 SW5 29.79S MORRISTOWN PTSUNNY 81 75 83 SW6 29.80F SOMERVILLE CLOUDY 77 73 87 CALM 29.79S SUSSEX CLOUDY 78 73 84 SW5 29.80F ANDOVER N/A 76 73 91 SW6 29.81F TRENTON CLOUDY 76 71 85 SW6 29.81F MILLVILLE CLOUDY 82 75 79 VRB5 29.84F ATLANTIC CITY PTSUNNY 82 74 76 S15G24 29.84F WRIGHTSTOWN TSTM 78 74 88 W20 29.81R VSB 1/2 TOMS RIVER N/A 84 75 74 S9 29.82S HX 92 BELMAR CLOUDY 84 73 70 SW8 29.81S HX 91 $$ PAZ047>061-062-071-302200- EASTERN PENNSYLVANIA CITY SKY/WX TMP DP RH WIND PRES REMARKS PHILADELPHIA TSTM 77 72 84 SW12 29.85R ALLENTOWN PTSUNNY 82 74 76 SW9 29.81F SCRANTON PTSUNNY 84 67 56 NW9 29.82F $$ CTZ002-004>006-009-010-012-RIZ004-006-007-MAZ004-011-015-302200- SOUTHERN NEW ENGLAND IN CT CITY SKY/WX TMP DP RH WIND PRES REMARKS BRADLEY INTL TSTM 75 72 90 SW8 29.78R FOG HARTFORD LGT RAIN 82 75 79 S14 29.78R DANBURY RAIN 74 N/A N/A SW17G23 29.83F WTRBRY/OXFORD TSTM 73 66 78 W8 29.85F BRIDGEPORT CLOUDY 79 73 82 SW9 29.80R MERIDEN CLOUDY 82 72 71 S10G25 29.80R NEW HAVEN PTSUNNY 78 72 81 SW12 29.81R CHESTER MOCLDY 79 72 78 S12G21 29.84R GROTON CLOUDY 77 71 82 SW10 29.81F WILLIMANTIC PTSUNNY 83 73 72 S13 29.80S IN RI CITY SKY/WX TMP DP RH WIND PRES REMARKS PROVIDENCE PTSUNNY 82 72 71 S16G23 29.81S BLOCK ISLAND N/A 79 73 83 SW17G23 29.85S WESTERLY PTSUNNY 78 72 81 S14G25 29.83F IN MA CITY SKY/WX TMP DP RH WIND PRES REMARKS BOSTON CLOUDY 86 72 62 SW21G28 29.75F HX 92 WORCESTER CLOUDY 79 71 76 S16G23 29.81F WESTFIELD LGT RAIN 77 72 84 S8 29.79R PROVINCETOWN PTSUNNY 81 66 61 SW21G30 29.80F NANTUCKET PTSUNNY 76 71 85 SW15 29.86F $$ ANZ330-335-338-340-345-350-353-355-302200- COASTAL MARINE OBSERVATIONS STATION/POSITION TIME SKY/WX TEMP WIND PRES VSBY WAVE AIR SEA DIR/SP/G HT/PER (UTC) (F) (DEG/KT/KT) (MB) (MI) (FT/S) NY HARB ENTRANCE 1950 78 77 190/ 23/ 27 1008.7 5/ 5 4S FIRE IS NOT AVBL 20S FIRE ISLAND 1950 77 76 200/ 17/ 21 1010.0 4/ 5 GREAT SOUTH BAY 2000 78 82 210/ 19/ 23 N/A 23SW MTP 2050 76 74 210/ 17/ 21 1009.8 4/ 5 HUDSON CANYON NOT AVBL KINGS POINT 2000 76 73 190/ 8/ 11 1008.5 EXECUTION ROCKS 2000 77 180/ 6/ 8 N/A CENTRAL LI SOUND NOT AVBL EASTERN LI SOUND 2000 77 69 220/ 12/ 14 N/A ROBBINS REEF 2000 85 210/ 13/ 16 1007.4 $$ >>>>>>>>>>>>>>>>>>>>>>>>>>>> KEY <<<<<<<<<<<<<<<<<<<<<<<<<<< > < > SKY/WX - SKY CONDITION/PRESENT WEATHER < > TMP - TEMPERATURE IN FAHRENHEIT < > DP - DEWPOINT IN FAHRENHEIT < > RH - RELATIVE HUMIDITY IN PERCENT < > WIND - DIRECTION AND SPEED IN MPH < > PRES - MEAN SEA LEVEL PRESSURE IN INCHES OF HG < > WCI - WIND CHILL INDEX < > VSB - VISIBILITY IN MILES < > HX - HEAT INDEX < > TC - TEMPERATURE IN CELSIUS < > VRB - VARIABLE WIND DIRECTION < > < >>>>>>>>>>>>>>>>>>>>>>>>>>>> KEY <<<<<<<<<<<<<<<<<<<<<<<<<<<

USA.gov is the U.S. government's official web portal to all federal, state and local government web resources and services.